TimeEDT,TemperatureF,Dew PointF,Humidity,Sea Level PressureIn,VisibilityMPH,Wind Direction,Wind SpeedMPH,Gust SpeedMPH,PrecipitationIn,Events,Conditions,WindDirDegrees,DateUTC
12:15 AM,60.8,60.8,100,30.13,10.0,Calm,Calm,-,N/A,,Clear,0,2013-08-16 04:15:00
12:35 AM,60.8,60.8,100,30.13,8.0,Calm,Calm,-,N/A,,Clear,0,2013-08-16 04:35:00
12:55 AM,60.8,60.8,100,30.13,9.0,Calm,Calm,-,N/A,,Clear,0,2013-08-16 04:55:00
1:15 AM,59.0,59.0,100,30.12,7.0,Calm,Calm,-,N/A,,Clear,0,2013-08-16 05:15:00
1:55 AM,60.8,60.8,100,30.11,10.0,Calm,Calm,-,N/A,,Clear,0,2013-08-16 05:55:00
2:15 AM,59.0,59.0,100,30.11,7.0,Calm,Calm,-,N/A,,Clear,0,2013-08-16 06:15:00
2:35 AM,59.0,59.0,100,30.10,9.0,Calm,Calm,-,N/A,,Partly Cloudy,0,2013-08-16 06:35:00
2:55 AM,59.0,59.0,100,30.10,10.0,Calm,Calm,-,N/A,,Partly Cloudy,0,2013-08-16 06:55:00
3:15 AM,59.0,59.0,100,30.09,10.0,Calm,Calm,-,N/A,,Scattered Clouds,0,2013-08-16 07:15:00
3:35 AM,59.0,59.0,100,30.09,10.0,Calm,Calm,-,N/A,,Overcast,0,2013-08-16 07:35:00
3:55 AM,59.0,59.0,100,30.09,9.0,Calm,Calm,-,N/A,,Scattered Clouds,0,2013-08-16 07:55:00
4:15 AM,59.0,59.0,100,30.09,7.0,Calm,Calm,-,N/A,,Clear,0,2013-08-16 08:15:00
4:35 AM,59.0,59.0,100,30.10,10.0,Calm,Calm,-,N/A,,Scattered Clouds,0,2013-08-16 08:35:00
4:55 AM,59.0,59.0,100,30.10,10.0,NE,3.5,-,N/A,,Overcast,40,2013-08-16 08:55:00
5:15 AM,60.8,60.8,100,30.10,10.0,Calm,Calm,-,N/A,,Overcast,0,2013-08-16 09:15:00
5:35 AM,60.8,60.8,100,30.10,10.0,NE,5.8,-,N/A,,Overcast,40,2013-08-16 09:35:00
5:55 AM,62.6,62.6,100,30.11,10.0,NNE,5.8,-,N/A,,Overcast,30,2013-08-16 09:55:00
6:15 AM,60.8,60.8,100,30.11,10.0,Calm,Calm,-,N/A,,Overcast,0,2013-08-16 10:15:00
6:35 AM,62.6,62.6,100,30.11,10.0,NE,3.5,-,N/A,,Overcast,50,2013-08-16 10:35:00
6:55 AM,62.6,62.6,100,30.11,10.0,Calm,Calm,-,N/A,,Scattered Clouds,0,2013-08-16 10:55:00
7:15 AM,62.6,62.6,100,30.12,10.0,Calm,Calm,-,N/A,,Scattered Clouds,0,2013-08-16 11:15:00
7:35 AM,62.6,62.6,100,30.13,7.0,Calm,Calm,-,0.01,Rain,Light Rain,0,2013-08-16 11:35:00
7:55 AM,62.6,62.6,100,30.15,7.0,Calm,Calm,-,0.01,,Scattered Clouds,0,2013-08-16 11:55:00
8:15 AM,62.6,62.6,100,30.16,4.0,North,3.5,-,N/A,Rain,Light Rain,10,2013-08-16 12:15:00
8:35 AM,62.6,62.6,100,30.15,3.0,NE,4.6,-,0.05,Rain,Light Rain,50,2013-08-16 12:35:00
8:55 AM,62.6,62.6,100,30.14,2.5,Calm,Calm,-,0.08,Rain,Light Rain,0,2013-08-16 12:55:00
9:15 AM,62.6,62.6,100,30.14,3.0,ENE,3.5,-,0.01,Rain,Light Rain,70,2013-08-16 13:15:00
9:35 AM,62.6,62.6,100,30.15,2.5,Calm,Calm,-,0.03,Rain,Light Rain,0,2013-08-16 13:35:00
9:55 AM,62.6,62.6,100,30.14,2.0,NE,3.5,-,0.08,Rain,Light Rain,50,2013-08-16 13:55:00
10:15 AM,62.6,62.6,100,30.16,2.5,Calm,Calm,-,0.02,Rain,Light Rain,0,2013-08-16 14:15:00
10:35 AM,64.4,64.4,100,30.16,3.0,Calm,Calm,-,0.04,Rain,Light Rain,0,2013-08-16 14:35:00
10:55 AM,64.4,64.4,100,30.15,5.0,NE,4.6,-,0.05,Rain,Light Rain,50,2013-08-16 14:55:00
11:15 AM,64.4,64.4,100,30.16,9.0,Calm,Calm,-,0.01,Rain,Light Rain,0,2013-08-16 15:15:00
11:35 AM,64.4,64.4,100,30.16,10.0,NNE,5.8,-,0.01,Rain,Light Rain,30,2013-08-16 15:35:00
11:55 AM,64.4,64.4,100,30.16,7.0,NE,8.1,-,0.02,Rain,Light Rain,40,2013-08-16 15:55:00
12:15 PM,64.4,64.4,100,30.15,8.0,NNE,5.8,-,0.01,Rain,Light Rain,30,2013-08-16 16:15:00
12:35 PM,64.4,64.4,100,30.14,3.0,Calm,Calm,-,0.03,Rain,Light Rain,0,2013-08-16 16:35:00
12:55 PM,64.4,64.4,100,30.15,7.0,Calm,Calm,-,0.03,Rain,Light Rain,0,2013-08-16 16:55:00
1:15 PM,64.4,64.4,100,30.15,4.0,Calm,Calm,-,0.01,Rain,Light Rain,0,2013-08-16 17:15:00
1:35 PM,64.4,64.4,100,30.13,3.0,Calm,Calm,-,0.02,Rain,Light Rain,0,2013-08-16 17:35:00
1:55 PM,62.6,62.6,100,30.13,3.0,ENE,3.5,-,0.04,Rain,Light Rain,60,2013-08-16 17:55:00
2:15 PM,64.4,64.4,100,30.14,6.0,ENE,3.5,-,0.01,Rain,Light Rain,70,2013-08-16 18:15:00
2:35 PM,64.4,64.4,100,30.13,5.0,NNE,8.1,-,0.03,Rain,Light Rain,30,2013-08-16 18:35:00
2:55 PM,64.4,64.4,100,30.13,8.0,NE,3.5,-,0.03,Rain,Light Rain,40,2013-08-16 18:55:00
3:15 PM,64.4,64.4,100,30.13,9.0,Calm,Calm,-,N/A,Rain,Light Rain,0,2013-08-16 19:15:00
3:35 PM,64.4,64.4,100,30.13,10.0,NE,4.6,-,N/A,,Clear,50,2013-08-16 19:35:00
3:55 PM,66.2,66.2,100,30.13,10.0,Calm,Calm,-,N/A,,Clear,0,2013-08-16 19:55:00
4:15 PM,66.2,66.2,100,30.12,10.0,ENE,4.6,-,N/A,,Mostly Cloudy,60,2013-08-16 20:15:00
4:35 PM,64.4,64.4,100,30.11,10.0,ENE,4.6,-,N/A,,Mostly Cloudy,70,2013-08-16 20:35:00
4:55 PM,66.2,66.2,100,30.13,10.0,NNE,5.8,-,N/A,,Mostly Cloudy,30,2013-08-16 20:55:00
5:15 PM,66.2,66.2,100,30.13,10.0,NNE,6.9,-,N/A,,Mostly Cloudy,30,2013-08-16 21:15:00
5:35 PM,64.4,64.4,100,30.13,9.0,NE,5.8,-,N/A,Rain,Light Rain,40,2013-08-16 21:35:00
5:55 PM,64.4,64.4,100,30.12,9.0,NE,3.5,-,N/A,,Mostly Cloudy,50,2013-08-16 21:55:00
6:15 PM,64.4,64.4,100,30.12,6.0,Calm,Calm,-,0.01,Rain,Light Rain,0,2013-08-16 22:15:00
6:35 PM,64.4,64.4,100,30.12,5.0,Calm,Calm,-,0.02,Rain,Light Rain,0,2013-08-16 22:35:00
6:55 PM,64.4,64.4,100,30.11,5.0,Calm,Calm,-,0.03,,Mostly Cloudy,0,2013-08-16 22:55:00
7:15 PM,64.4,64.4,100,30.12,8.0,NNE,4.6,-,N/A,Rain,Light Rain,30,2013-08-16 23:15:00
7:35 PM,64.4,64.4,100,30.12,7.0,NE,3.5,-,N/A,,Mostly Cloudy,50,2013-08-16 23:35:00
7:55 PM,64.4,64.4,100,30.13,8.0,North,3.5,-,N/A,,Partly Cloudy,10,2013-08-16 23:55:00
8:15 PM,64.4,64.4,100,30.13,3.0,Calm,Calm,-,N/A,,Scattered Clouds,0,2013-08-17 00:15:00
8:35 PM,64.4,64.4,100,30.15,9.0,Calm,Calm,-,N/A,,Mostly Cloudy,0,2013-08-17 00:35:00
8:55 PM,62.6,62.6,100,30.14,5.0,NE,3.5,-,N/A,Rain,Light Rain,40,2013-08-17 00:55:00
9:15 PM,62.6,62.6,100,30.15,10.0,NNE,3.5,-,N/A,,Scattered Clouds,30,2013-08-17 01:15:00
9:35 PM,62.6,62.6,100,30.16,6.0,Calm,Calm,-,N/A,,Mostly Cloudy,0,2013-08-17 01:35:00
9:55 PM,62.6,62.6,100,30.17,4.0,Calm,Calm,-,N/A,,Overcast,0,2013-08-17 01:55:00
10:15 PM,62.6,62.6,100,30.17,5.0,Calm,Calm,-,N/A,,Overcast,0,2013-08-17 02:15:00
10:35 PM,62.6,62.6,100,30.17,5.0,Calm,Calm,-,N/A,,Overcast,0,2013-08-17 02:35:00
10:55 PM,62.6,62.6,100,30.16,5.0,Calm,Calm,-,N/A,,Overcast,0,2013-08-17 02:55:00
11:15 PM,62.6,62.6,100,30.17,4.0,Calm,Calm,-,N/A,Rain,Light Rain,0,2013-08-17 03:15:00
11:35 PM,62.6,62.6,100,30.17,2.0,Calm,Calm,-,0.01,Rain,Light Rain,0,2013-08-17 03:35:00
11:55 PM,62.6,62.6,100,30.17,3.0,Calm,Calm,-,0.02,Rain,Light Rain,0,2013-08-17 03:55:00